Location: Gensac
(43.2177°N, 1.1313°E)
Time: 13:51:41
(UTC+00:00)

Cosmos 1758 Rocket - Pass Details

Date: 08 December 2025
Orbit: 595 x 629 km, 82.5° (Epoch: 19 January)

Event Time Altitude Azimuth Distance (km) Brightness Sun altitude
Rises 06:32:31 0° 197° (SSW) 2,899 7.1 -7.7°
Reaches altitude 10° 06:34:47 10° 201° (SSW) 1,994 6.2 -7.3°
Maximum altitude 06:39:08 57° 280° (W) 736 3.7 -6.6°
Drops below altitude 10° 06:43:29 10° 0° (N) 1,993 5.9 -5.8°
Sets 06:45:45 0° 5° (N) 2,898 6.8 -5.5°
